Time,TemperatureF,DewpointF,PressureIn,WindDirection,WindDirectionDegrees,WindSpeedMPH,WindSpeedGustMPH,Humidity,HourlyPrecipIn,Conditions,Clouds,dailyrainin,SoftwareType,DateUTC
2013-12-31 00:01:00,21.7,14.0,30.10,NNW,337,5.4,9.0,69,0.00,,,0.00,Rainwise IP-100,2013-12-31 05:01:00,
2013-12-31 00:02:00,21.6,14.0,30.10,NNW,337,6.1,9.0,69,0.00,,,0.00,Rainwise IP-100,2013-12-31 05:02:00,
2013-12-31 00:04:00,21.6,14.0,30.10,NE,45,2.3,9.0,69,0.00,,,0.00,Rainwise IP-100,2013-12-31 05:04:00,
2013-12-31 00:09:00,21.5,14.0,30.09,North,360,1.4,6.0,69,0.00,,,0.00,Rainwise IP-100,2013-12-31 05:09:00,
2013-12-31 00:14:00,21.3,14.0,30.09,North,360,3.7,6.0,69,0.00,,,0.00,Rainwise IP-100,2013-12-31 05:14:00,
2013-12-31 00:19:00,21.1,14.0,30.09,NNW,337,5.4,11.0,69,0.00,,,0.00,Rainwise IP-100,2013-12-31 05:19:00,
2013-12-31 00:24:00,21.1,14.0,30.09,NNW,337,2.1,8.0,70,0.00,,,0.00,Rainwise IP-100,2013-12-31 05:24:00,
2013-12-31 00:29:00,21.0,14.0,30.08,NNW,337,6.1,10.0,70,0.00,,,0.00,Rainwise IP-100,2013-12-31 05:29:00,
2013-12-31 00:34:00,20.9,14.0,30.08,NNW,337,3.5,13.0,71,0.00,,,0.00,Rainwise IP-100,2013-12-31 05:34:00,
2013-12-31 00:39:00,20.8,14.0,30.09,NNE,22,1.6,9.0,71,0.00,,,0.00,Rainwise IP-100,2013-12-31 05:39:00,
2013-12-31 00:44:00,20.7,14.0,30.08,North,360,6.1,7.0,72,0.00,,,0.00,Rainwise IP-100,2013-12-31 05:44:00,
2013-12-31 00:49:00,20.5,14.0,30.08,SSE,157,0.0,13.0,73,0.00,,,0.00,Rainwise IP-100,2013-12-31 05:49:00,
2013-12-31 00:54:00,20.5,14.0,30.08,NE,45,1.6,10.0,73,0.00,,,0.00,Rainwise IP-100,2013-12-31 05:54:00,
2013-12-31 00:59:00,20.4,14.0,30.08,ENE,67,0.0,9.0,74,0.00,,,0.00,Rainwise IP-100,2013-12-31 05:59:00,
2013-12-31 01:04:00,20.2,14.0,30.08,NW,315,3.5,8.0,74,0.00,,,0.00,Rainwise IP-100,2013-12-31 06:04:00,
2013-12-31 01:09:00,20.2,14.0,30.09,NNW,337,6.8,9.0,75,0.00,,,0.00,Rainwise IP-100,2013-12-31 06:09:00,
2013-12-31 01:14:00,20.2,14.0,30.09,North,360,2.8,8.0,75,0.00,,,0.00,Rainwise IP-100,2013-12-31 06:14:00,
2013-12-31 01:19:00,20.1,14.0,30.09,North,360,2.6,11.0,75,0.00,,,0.00,Rainwise IP-100,2013-12-31 06:19:00,
2013-12-31 01:24:00,20.0,14.0,30.10,North,360,4.4,13.0,75,0.00,,,0.00,Rainwise IP-100,2013-12-31 06:24:00,
2013-12-31 01:29:00,19.8,14.0,30.10,NNE,22,0.0,6.0,76,0.00,,,0.00,Rainwise IP-100,2013-12-31 06:29:00,
2013-12-31 01:34:00,19.7,14.0,30.10,NE,45,3.0,9.0,76,0.00,,,0.00,Rainwise IP-100,2013-12-31 06:34:00,
2013-12-31 01:39:00,19.8,14.0,30.10,NNW,337,2.3,8.0,76,0.00,,,0.00,Rainwise IP-100,2013-12-31 06:39:00,
2013-12-31 01:44:00,19.8,14.0,30.10,NW,315,3.5,10.0,76,0.00,,,0.00,Rainwise IP-100,2013-12-31 06:44:00,
2013-12-31 01:49:00,19.8,14.0,30.10,NE,45,4.7,10.0,76,0.00,,,0.00,Rainwise IP-100,2013-12-31 06:49:00,
2013-12-31 01:54:00,19.7,14.0,30.11,NNE,22,4.7,11.0,75,0.00,,,0.00,Rainwise IP-100,2013-12-31 06:54:00,
2013-12-31 01:59:00,19.8,14.0,30.11,WNW,292,1.9,12.0,75,0.00,,,0.00,Rainwise IP-100,2013-12-31 06:59:00,
2013-12-31 02:04:00,19.8,14.0,30.11,NNW,337,2.1,11.0,75,0.00,,,0.00,Rainwise IP-100,2013-12-31 07:04:00,
2013-12-31 02:09:00,19.7,14.0,30.11,NNE,22,2.1,13.0,74,0.00,,,0.00,Rainwise IP-100,2013-12-31 07:09:00,
2013-12-31 02:14:00,19.6,14.0,30.11,NNW,337,11.2,13.0,74,0.00,,,0.00,Rainwise IP-100,2013-12-31 07:14:00,
2013-12-31 02:19:00,19.5,14.0,30.11,North,360,2.8,14.0,73,0.00,,,0.00,Rainwise IP-100,2013-12-31 07:19:00,
2013-12-31 02:24:00,19.4,14.0,30.11,NNE,22,6.1,14.0,73,0.00,,,0.00,Rainwise IP-100,2013-12-31 07:24:00,
2013-12-31 02:29:00,19.4,14.0,30.11,NNE,22,4.0,11.0,73,0.00,,,0.00,Rainwise IP-100,2013-12-31 07:29:00,
2013-12-31 02:34:00,19.2,14.0,30.11,NNW,337,6.5,16.0,73,0.00,,,0.00,Rainwise IP-100,2013-12-31 07:34:00,
2013-12-31 02:39:00,19.0,14.0,30.11,NNW,337,6.8,14.0,73,0.00,,,0.00,Rainwise IP-100,2013-12-31 07:39:00,
2013-12-31 02:44:00,18.9,14.0,30.10,NNW,337,2.6,12.0,74,0.00,,,0.00,Rainwise IP-100,2013-12-31 07:44:00,
2013-12-31 02:49:00,18.7,14.0,30.10,NNE,22,7.5,11.0,74,0.00,,,0.00,Rainwise IP-100,2013-12-31 07:49:00,
2013-12-31 02:54:00,18.7,14.0,30.10,NNW,337,5.1,11.0,74,0.00,,,0.00,Rainwise IP-100,2013-12-31 07:54:00,
2013-12-31 02:59:00,18.5,14.0,30.09,NNW,337,6.5,12.0,74,0.00,,,0.00,Rainwise IP-100,2013-12-31 07:59:00,
2013-12-31 03:04:00,18.3,14.0,30.09,NNE,22,4.7,11.0,75,0.00,,,0.00,Rainwise IP-100,2013-12-31 08:04:00,
2013-12-31 03:09:00,18.0,14.0,30.09,NNE,22,3.7,9.0,75,0.00,,,0.00,Rainwise IP-100,2013-12-31 08:09:00,
2013-12-31 03:14:00,17.8,14.0,30.09,NNE,22,5.1,11.0,75,0.00,,,0.00,Rainwise IP-100,2013-12-31 08:14:00,
2013-12-31 03:19:00,17.8,14.0,30.09,NNE,22,0.0,11.0,75,0.00,,,0.00,Rainwise IP-100,2013-12-31 08:19:00,
2013-12-31 03:24:00,17.8,14.0,30.09,NNW,337,4.0,11.0,75,0.00,,,0.00,Rainwise IP-100,2013-12-31 08:24:00,
2013-12-31 03:29:00,17.9,14.0,30.08,NNW,337,7.9,11.0,75,0.00,,,0.00,Rainwise IP-100,2013-12-31 08:29:00,
2013-12-31 03:34:00,17.9,11.0,30.09,NE,45,3.7,13.0,74,0.00,,,0.00,Rainwise IP-100,2013-12-31 08:34:00,
2013-12-31 03:39:00,17.9,11.0,30.08,NW,315,4.4,9.0,74,0.00,,,0.00,Rainwise IP-100,2013-12-31 08:39:00,
2013-12-31 03:44:00,17.8,11.0,30.08,NW,315,5.6,10.0,74,0.00,,,0.00,Rainwise IP-100,2013-12-31 08:44:00,
2013-12-31 03:49:00,17.8,11.0,30.09,NNE,22,3.5,11.0,74,0.00,,,0.00,Rainwise IP-100,2013-12-31 08:49:00,
2013-12-31 03:54:00,17.8,11.0,30.09,NNW,337,8.6,9.0,74,0.00,,,0.00,Rainwise IP-100,2013-12-31 08:54:00,
2013-12-31 03:59:00,17.8,11.0,30.10,NW,315,4.2,9.0,74,0.00,,,0.00,Rainwise IP-100,2013-12-31 08:59:00,
2013-12-31 04:04:00,17.8,11.0,30.09,NW,315,5.6,10.0,73,0.00,,,0.00,Rainwise IP-100,2013-12-31 09:04:00,
2013-12-31 04:09:00,17.6,11.0,30.08,NNE,22,4.4,12.0,73,0.00,,,0.00,Rainwise IP-100,2013-12-31 09:09:00,
2013-12-31 04:14:00,17.4,11.0,30.08,NNE,22,5.4,12.0,73,0.00,,,0.00,Rainwise IP-100,2013-12-31 09:14:00,
2013-12-31 04:19:00,17.3,11.0,30.08,NNW,337,5.8,13.0,72,0.00,,,0.00,Rainwise IP-100,2013-12-31 09:19:00,
2013-12-31 04:24:00,17.2,11.0,30.08,NW,315,5.8,9.0,71,0.00,,,0.00,Rainwise IP-100,2013-12-31 09:24:00,
2013-12-31 04:29:00,17.1,11.0,30.07,NNW,337,3.3,10.0,71,0.00,,,0.00,Rainwise IP-100,2013-12-31 09:29:00,
2013-12-31 04:34:00,17.0,11.0,30.07,NW,315,5.1,12.0,71,0.00,,,0.00,Rainwise IP-100,2013-12-31 09:34:00,
2013-12-31 04:39:00,16.9,11.0,30.07,NNE,22,7.0,12.0,70,0.00,,,0.00,Rainwise IP-100,2013-12-31 09:39:00,
2013-12-31 04:44:00,16.8,11.0,30.07,NNE,22,5.8,14.0,69,0.00,,,0.00,Rainwise IP-100,2013-12-31 09:44:00,
2013-12-31 04:49:00,16.7,11.0,30.07,NNE,22,4.4,9.0,69,0.00,,,0.00,Rainwise IP-100,2013-12-31 09:49:00,
2013-12-31 04:54:00,16.7,11.0,30.07,NNW,337,6.5,8.0,69,0.00,,,0.00,Rainwise IP-100,2013-12-31 09:54:00,
2013-12-31 04:59:00,16.8,11.0,30.07,NNE,22,3.5,8.0,69,0.00,,,0.00,Rainwise IP-100,2013-12-31 09:59:00,
2013-12-31 05:04:00,16.8,11.0,30.06,NNE,22,1.9,8.0,69,0.00,,,0.00,Rainwise IP-100,2013-12-31 10:04:00,
2013-12-31 05:09:00,16.7,11.0,30.07,NNE,22,4.2,12.0,68,0.00,,,0.00,Rainwise IP-100,2013-12-31 10:09:00,
2013-12-31 05:14:00,16.6,11.0,30.07,NNW,337,3.0,9.0,68,0.00,,,0.00,Rainwise IP-100,2013-12-31 10:14:00,
2013-12-31 05:19:00,16.5,11.0,30.07,NNW,337,3.7,12.0,67,0.00,,,0.00,Rainwise IP-100,2013-12-31 10:19:00,
2013-12-31 05:24:00,16.5,11.0,30.08,NNW,337,4.0,12.0,67,0.00,,,0.00,Rainwise IP-100,2013-12-31 10:24:00,
2013-12-31 05:29:00,16.4,8.0,30.08,NNW,337,4.7,9.0,66,0.00,,,0.00,Rainwise IP-100,2013-12-31 10:29:00,
2013-12-31 05:34:00,16.4,8.0,30.08,NNE,22,2.3,14.0,65,0.00,,,0.00,Rainwise IP-100,2013-12-31 10:34:00,
2013-12-31 05:39:00,16.4,8.0,30.08,NNW,337,4.0,12.0,64,0.00,,,0.00,Rainwise IP-100,2013-12-31 10:39:00,
2013-12-31 05:44:00,16.4,8.0,30.08,NNW,337,3.5,10.0,64,0.00,,,0.00,Rainwise IP-100,2013-12-31 10:44:00,
2013-12-31 05:49:00,16.4,8.0,30.08,NNW,337,4.0,11.0,64,0.00,,,0.00,Rainwise IP-100,2013-12-31 10:49:00,
2013-12-31 05:54:00,16.4,8.0,30.08,NNW,337,2.3,8.0,64,0.00,,,0.00,Rainwise IP-100,2013-12-31 10:54:00,
2013-12-31 05:59:00,16.3,8.0,30.08,NNE,22,3.7,13.0,63,0.00,,,0.00,Rainwise IP-100,2013-12-31 10:59:00,
2013-12-31 06:04:00,16.3,8.0,30.09,ENE,67,3.5,9.0,63,0.00,,,0.00,Rainwise IP-100,2013-12-31 11:04:00,
2013-12-31 06:09:00,16.3,8.0,30.09,NW,315,2.6,9.0,62,0.00,,,0.00,Rainwise IP-100,2013-12-31 11:09:00,
2013-12-31 06:14:00,16.3,4.0,30.08,NW,315,0.0,8.0,61,0.00,,,0.00,Rainwise IP-100,2013-12-31 11:14:00,
2013-12-31 06:19:00,16.3,4.0,30.08,NNW,337,2.8,6.0,61,0.00,,,0.00,Rainwise IP-100,2013-12-31 11:19:00,
2013-12-31 06:24:00,16.3,4.0,30.08,North,360,7.9,8.0,60,0.00,,,0.00,Rainwise IP-100,2013-12-31 11:24:00,
2013-12-31 06:29:00,16.4,4.0,30.08,NE,45,4.0,11.0,60,0.00,,,0.00,Rainwise IP-100,2013-12-31 11:29:00,
2013-12-31 06:34:00,16.4,4.0,30.07,NNW,337,6.3,10.0,59,0.00,,,0.00,Rainwise IP-100,2013-12-31 11:34:00,
2013-12-31 06:39:00,16.3,4.0,30.08,NNE,22,0.0,10.0,58,0.00,,,0.00,Rainwise IP-100,2013-12-31 11:39:00,
2013-12-31 06:44:00,16.2,4.0,30.08,NNW,337,1.9,8.0,57,0.00,,,0.00,Rainwise IP-100,2013-12-31 11:44:00,
2013-12-31 06:49:00,16.3,4.0,30.08,NW,315,3.7,7.0,57,0.00,,,0.00,Rainwise IP-100,2013-12-31 11:49:00,
2013-12-31 06:54:00,16.2,4.0,30.09,NNW,337,6.5,8.0,57,0.00,,,0.00,Rainwise IP-100,2013-12-31 11:54:00,
2013-12-31 06:59:00,16.2,4.0,30.08,NNE,22,2.3,9.0,57,0.00,,,0.00,Rainwise IP-100,2013-12-31 11:59:00,
2013-12-31 07:04:00,16.3,4.0,30.08,NW,315,1.9,9.0,57,0.00,,,0.00,Rainwise IP-100,2013-12-31 12:04:00,
2013-12-31 07:09:00,16.2,4.0,30.08,WNW,292,2.1,5.0,57,0.00,,,0.00,Rainwise IP-100,2013-12-31 12:09:00,
2013-12-31 07:14:00,16.2,4.0,30.08,NNW,337,10.3,12.0,57,0.00,,,0.00,Rainwise IP-100,2013-12-31 12:14:00,
2013-12-31 07:19:00,16.2,4.0,30.08,NW,315,3.5,15.0,57,0.00,,,0.00,Rainwise IP-100,2013-12-31 12:19:00,
2013-12-31 07:24:00,16.2,4.0,30.08,NNW,337,3.7,13.0,57,0.00,,,0.00,Rainwise IP-100,2013-12-31 12:24:00,
2013-12-31 07:29:00,16.2,4.0,30.07,NNW,337,7.0,9.0,58,0.00,,,0.00,Rainwise IP-100,2013-12-31 12:29:00,
2013-12-31 07:34:00,16.1,4.0,30.07,NNW,337,3.7,11.0,58,0.00,,,0.00,Rainwise IP-100,2013-12-31 12:34:00,
2013-12-31 07:39:00,16.0,4.0,30.08,NE,45,4.7,11.0,58,0.00,,,0.00,Rainwise IP-100,2013-12-31 12:39:00,
2013-12-31 07:44:00,16.0,4.0,30.08,NNW,337,8.6,10.0,59,0.00,,,0.00,Rainwise IP-100,2013-12-31 12:44:00,
2013-12-31 07:49:00,15.9,4.0,30.08,NE,45,2.1,11.0,60,0.00,,,0.00,Rainwise IP-100,2013-12-31 12:49:00,
2013-12-31 07:54:00,15.9,4.0,30.07,North,360,7.0,11.0,60,0.00,,,0.00,Rainwise IP-100,2013-12-31 12:54:00,
2013-12-31 07:59:00,15.8,4.0,30.08,NNW,337,3.0,10.0,61,0.00,,,0.00,Rainwise IP-100,2013-12-31 12:59:00,
2013-12-31 08:04:00,15.7,8.0,30.08,North,360,6.5,7.0,62,0.00,,,0.00,Rainwise IP-100,2013-12-31 13:04:00,
2013-12-31 08:09:00,15.7,8.0,30.08,NNW,337,5.4,9.0,62,0.00,,,0.00,Rainwise IP-100,2013-12-31 13:09:00,
2013-12-31 08:14:00,15.7,8.0,30.08,North,360,5.4,8.0,63,0.00,,,0.00,Rainwise IP-100,2013-12-31 13:14:00,
2013-12-31 08:19:00,15.6,8.0,30.08,NNW,337,3.5,8.0,63,0.00,,,0.00,Rainwise IP-100,2013-12-31 13:19:00,
2013-12-31 08:24:00,15.4,8.0,30.08,NNW,337,1.2,9.0,63,0.00,,,0.00,Rainwise IP-100,2013-12-31 13:24:00,
2013-12-31 08:29:00,15.4,8.0,30.08,WNW,292,3.0,7.0,64,0.00,,,0.00,Rainwise IP-100,2013-12-31 13:29:00,
2013-12-31 08:34:00,15.3,8.0,30.08,NW,315,2.6,6.0,64,0.00,,,0.00,Rainwise IP-100,2013-12-31 13:34:00,
2013-12-31 08:39:00,15.3,8.0,30.09,NE,45,3.0,5.0,64,0.00,,,0.00,Rainwise IP-100,2013-12-31 13:39:00,
2013-12-31 08:44:00,15.4,8.0,30.09,NNW,337,3.5,9.0,65,0.00,,,0.00,Rainwise IP-100,2013-12-31 13:44:00,
2013-12-31 08:49:00,15.5,8.0,30.09,NNW,337,10.0,10.0,65,0.00,,,0.00,Rainwise IP-100,2013-12-31 13:49:00,
2013-12-31 08:54:00,15.9,8.0,30.08,NNW,337,2.8,11.0,65,0.00,,,0.00,Rainwise IP-100,2013-12-31 13:54:00,
2013-12-31 08:59:00,16.4,8.0,30.09,WNW,292,2.1,9.0,65,0.00,,,0.00,Rainwise IP-100,2013-12-31 13:59:00,
2013-12-31 09:04:00,17.0,11.0,30.09,NW,315,5.1,8.0,65,0.00,,,0.00,Rainwise IP-100,2013-12-31 14:04:00,
2013-12-31 09:09:00,17.6,8.0,30.09,NNW,337,4.2,11.0,64,0.00,,,0.00,Rainwise IP-100,2013-12-31 14:09:00,
2013-12-31 09:14:00,18.3,8.0,30.09,NNW,337,5.4,9.0,63,0.00,,,0.00,Rainwise IP-100,2013-12-31 14:14:00,
2013-12-31 09:19:00,18.7,11.0,30.09,WNW,292,5.4,12.0,62,0.00,,,0.00,Rainwise IP-100,2013-12-31 14:19:00,
2013-12-31 09:24:00,18.8,11.0,30.09,NNW,337,4.4,11.0,61,0.00,,,0.00,Rainwise IP-100,2013-12-31 14:24:00,
2013-12-31 09:29:00,18.9,11.0,30.09,NNE,22,3.3,12.0,61,0.00,,,0.00,Rainwise IP-100,2013-12-31 14:29:00,
2013-12-31 09:34:00,19.0,11.0,30.09,WNW,292,3.0,9.0,60,0.00,,,0.00,Rainwise IP-100,2013-12-31 14:34:00,
2013-12-31 09:39:00,19.4,11.0,30.09,NW,315,4.7,11.0,60,0.00,,,0.00,Rainwise IP-100,2013-12-31 14:39:00,
2013-12-31 09:44:00,19.6,11.0,30.09,NNW,337,0.0,7.0,60,0.00,,,0.00,Rainwise IP-100,2013-12-31 14:44:00,
2013-12-31 09:49:00,19.8,11.0,30.08,NNW,337,6.3,8.0,61,0.00,,,0.00,Rainwise IP-100,2013-12-31 14:49:00,
2013-12-31 09:54:00,20.3,11.0,30.08,NNW,337,2.1,8.0,61,0.00,,,0.00,Rainwise IP-100,2013-12-31 14:54:00,
2013-12-31 09:59:00,21.0,11.0,30.08,NW,315,5.8,7.0,63,0.00,,,0.00,Rainwise IP-100,2013-12-31 14:59:00,
2013-12-31 10:04:00,21.5,14.0,30.09,NNW,337,6.3,7.0,63,0.00,,,0.00,Rainwise IP-100,2013-12-31 15:04:00,
2013-12-31 10:09:00,21.1,11.0,30.09,WNW,292,6.3,11.0,61,0.00,,,0.00,Rainwise IP-100,2013-12-31 15:09:00,
2013-12-31 10:14:00,20.3,11.0,30.08,NW,315,4.4,8.0,61,0.00,,,0.00,Rainwise IP-100,2013-12-31 15:14:00,
2013-12-31 10:19:00,19.7,11.0,30.07,NW,315,4.2,7.0,62,0.00,,,0.00,Rainwise IP-100,2013-12-31 15:19:00,
2013-12-31 10:24:00,19.6,11.0,30.07,WNW,292,5.8,7.0,63,0.00,,,0.00,Rainwise IP-100,2013-12-31 15:24:00,
2013-12-31 10:29:00,19.8,11.0,30.07,NW,315,7.2,7.2,63,0.00,,,0.00,Rainwise IP-100,2013-12-31 15:29:00,
2013-12-31 10:34:00,20.1,11.0,30.07,NW,315,3.3,8.0,64,0.00,,,0.00,Rainwise IP-100,2013-12-31 15:34:00,
2013-12-31 10:39:00,20.4,11.0,30.07,WNW,292,5.4,7.0,63,0.00,,,0.00,Rainwise IP-100,2013-12-31 15:39:00,
2013-12-31 10:44:00,20.7,11.0,30.07,WNW,292,4.9,7.0,63,0.00,,,0.00,Rainwise IP-100,2013-12-31 15:44:00,
2013-12-31 10:49:00,20.8,11.0,30.07,WNW,292,6.1,11.0,62,0.00,,,0.00,Rainwise IP-100,2013-12-31 15:49:00,
2013-12-31 10:54:00,20.9,11.0,30.07,WNW,292,4.4,11.0,61,0.00,,,0.00,Rainwise IP-100,2013-12-31 15:54:00,
2013-12-31 10:59:00,20.9,11.0,30.06,West,270,4.0,11.0,60,0.00,,,0.00,Rainwise IP-100,2013-12-31 15:59:00,
2013-12-31 11:04:00,20.8,11.0,30.05,WSW,247,1.4,7.0,60,0.00,,,0.00,Rainwise IP-100,2013-12-31 16:04:00,
2013-12-31 11:09:00,20.9,11.0,30.05,WNW,292,5.4,5.4,61,0.00,,,0.00,Rainwise IP-100,2013-12-31 16:09:00,
2013-12-31 11:14:00,21.2,11.0,30.05,WSW,247,11.2,11.2,61,0.00,,,0.00,Rainwise IP-100,2013-12-31 16:14:00,
2013-12-31 11:19:00,21.6,11.0,30.05,WNW,292,4.9,11.0,60,0.00,,,0.00,Rainwise IP-100,2013-12-31 16:19:00,
2013-12-31 11:24:00,21.8,11.0,30.04,West,270,2.1,11.0,61,0.00,,,0.00,Rainwise IP-100,2013-12-31 16:24:00,
2013-12-31 11:29:00,22.2,11.0,30.03,WNW,292,5.1,10.0,61,0.00,,,0.00,Rainwise IP-100,2013-12-31 16:29:00,
2013-12-31 11:34:00,22.4,11.0,30.03,WSW,247,11.0,14.0,61,0.00,,,0.00,Rainwise IP-100,2013-12-31 16:34:00,
2013-12-31 11:39:00,22.3,11.0,30.03,West,270,6.3,12.0,60,0.00,,,0.00,Rainwise IP-100,2013-12-31 16:39:00,
2013-12-31 11:44:00,22.4,11.0,30.03,WNW,292,10.5,11.0,59,0.00,,,0.00,Rainwise IP-100,2013-12-31 16:44:00,
2013-12-31 11:49:00,22.3,11.0,30.03,West,270,10.7,14.0,59,0.00,,,0.00,Rainwise IP-100,2013-12-31 16:49:00,
2013-12-31 11:54:00,22.4,11.0,30.03,West,270,10.5,12.0,59,0.00,,,0.00,Rainwise IP-100,2013-12-31 16:54:00,
2013-12-31 11:59:00,22.7,11.0,30.02,West,270,2.8,11.0,58,0.00,,,0.00,Rainwise IP-100,2013-12-31 16:59:00,
2013-12-31 12:04:00,22.9,11.0,30.03,WNW,292,5.4,13.0,57,0.00,,,0.00,Rainwise IP-100,2013-12-31 17:04:00,
2013-12-31 12:09:00,22.9,11.0,30.02,West,270,2.6,13.0,57,0.00,,,0.00,Rainwise IP-100,2013-12-31 17:09:00,
2013-12-31 12:14:00,22.8,11.0,30.02,WNW,292,5.4,13.0,56,0.00,,,0.00,Rainwise IP-100,2013-12-31 17:14:00,
2013-12-31 12:19:00,22.5,11.0,30.02,WSW,247,4.9,14.0,56,0.00,,,0.00,Rainwise IP-100,2013-12-31 17:19:00,
2013-12-31 12:24:00,22.5,11.0,30.02,West,270,7.9,10.0,56,0.00,,,0.00,Rainwise IP-100,2013-12-31 17:24:00,
2013-12-31 12:29:00,22.9,11.0,30.02,SSW,202,3.7,10.0,56,0.00,,,0.00,Rainwise IP-100,2013-12-31 17:29:00,
2013-12-31 12:34:00,23.1,11.0,30.01,SW,225,4.9,11.0,56,0.00,,,0.00,Rainwise IP-100,2013-12-31 17:34:00,
2013-12-31 12:39:00,23.3,11.0,30.02,West,270,11.9,18.0,55,0.00,,,0.00,Rainwise IP-100,2013-12-31 17:39:00,
2013-12-31 12:44:00,23.2,8.0,30.02,SW,225,9.3,13.0,54,0.00,,,0.00,Rainwise IP-100,2013-12-31 17:44:00,
2013-12-31 12:49:00,23.1,8.0,30.02,West,270,15.6,15.6,54,0.00,,,0.00,Rainwise IP-100,2013-12-31 17:49:00,
2013-12-31 12:54:00,23.2,8.0,30.02,West,270,12.4,17.0,53,0.00,,,0.00,Rainwise IP-100,2013-12-31 17:54:00,
2013-12-31 12:59:00,23.4,8.0,30.02,West,270,5.4,15.0,53,0.00,,,0.00,Rainwise IP-100,2013-12-31 17:59:00,
2013-12-31 13:04:00,23.5,11.0,30.02,West,270,4.0,14.0,53,0.00,,,0.00,Rainwise IP-100,2013-12-31 18:04:00,
2013-12-31 13:09:00,23.6,11.0,30.02,West,270,10.7,14.0,53,0.00,,,0.00,Rainwise IP-100,2013-12-31 18:09:00,
2013-12-31 13:14:00,23.7,11.0,30.02,West,270,7.5,14.0,53,0.00,,,0.00,Rainwise IP-100,2013-12-31 18:14:00,
2013-12-31 13:19:00,24.0,11.0,30.02,SW,225,3.0,19.0,53,0.00,,,0.00,Rainwise IP-100,2013-12-31 18:19:00,
2013-12-31 13:24:00,24.1,11.0,30.02,West,270,11.4,20.0,53,0.00,,,0.00,Rainwise IP-100,2013-12-31 18:24:00,
2013-12-31 13:29:00,23.7,11.0,30.02,WNW,292,7.7,21.0,53,0.00,,,0.00,Rainwise IP-100,2013-12-31 18:29:00,
2013-12-31 13:34:00,23.4,8.0,30.02,WNW,292,11.2,18.0,53,0.00,,,0.00,Rainwise IP-100,2013-12-31 18:34:00,
2013-12-31 13:39:00,23.3,8.0,30.02,West,270,14.5,20.0,53,0.00,,,0.00,Rainwise IP-100,2013-12-31 18:39:00,
2013-12-31 13:44:00,23.2,8.0,30.02,West,270,8.9,16.0,54,0.00,,,0.00,Rainwise IP-100,2013-12-31 18:44:00,
2013-12-31 13:49:00,23.1,8.0,30.02,WNW,292,11.2,22.0,54,0.00,,,0.00,Rainwise IP-100,2013-12-31 18:49:00,
2013-12-31 13:54:00,23.1,11.0,30.02,WNW,292,13.5,17.0,55,0.00,,,0.00,Rainwise IP-100,2013-12-31 18:54:00,
2013-12-31 13:59:00,23.2,11.0,30.02,WNW,292,6.8,15.0,55,0.00,,,0.00,Rainwise IP-100,2013-12-31 18:59:00,
2013-12-31 14:04:00,23.3,11.0,30.02,West,270,7.5,12.0,56,0.00,,,0.00,Rainwise IP-100,2013-12-31 19:04:00,
2013-12-31 14:09:00,23.2,11.0,30.02,WNW,292,8.9,13.0,56,0.00,,,0.00,Rainwise IP-100,2013-12-31 19:09:00,
2013-12-31 14:14:00,23.1,11.0,30.02,WNW,292,10.3,12.0,56,0.00,,,0.00,Rainwise IP-100,2013-12-31 19:14:00,
2013-12-31 14:19:00,23.1,11.0,30.02,WNW,292,5.6,14.0,56,0.00,,,0.00,Rainwise IP-100,2013-12-31 19:19:00,
2013-12-31 14:24:00,23.3,11.0,30.02,SW,225,4.9,12.0,56,0.00,,,0.00,Rainwise IP-100,2013-12-31 19:24:00,
2013-12-31 14:29:00,23.1,11.0,30.02,West,270,7.9,13.0,56,0.00,,,0.00,Rainwise IP-100,2013-12-31 19:29:00,
2013-12-31 14:34:00,22.9,11.0,30.02,WNW,292,8.9,14.0,56,0.00,,,0.00,Rainwise IP-100,2013-12-31 19:34:00,
2013-12-31 14:39:00,22.9,11.0,30.02,West,270,8.6,11.0,57,0.00,,,0.00,Rainwise IP-100,2013-12-31 19:39:00,
2013-12-31 14:44:00,23.3,11.0,30.02,WNW,292,7.0,9.0,57,0.00,,,0.00,Rainwise IP-100,2013-12-31 19:44:00,
2013-12-31 14:49:00,23.8,11.0,30.02,NW,315,5.8,14.0,57,0.00,,,0.00,Rainwise IP-100,2013-12-31 19:49:00,
2013-12-31 14:54:00,24.0,11.0,30.02,WNW,292,6.1,13.0,57,0.00,,,0.00,Rainwise IP-100,2013-12-31 19:54:00,
2013-12-31 14:59:00,24.0,11.0,30.02,West,270,6.1,15.0,57,0.00,,,0.00,Rainwise IP-100,2013-12-31 19:59:00,
2013-12-31 15:04:00,24.0,11.0,30.02,WNW,292,6.3,17.0,57,0.00,,,0.00,Rainwise IP-100,2013-12-31 20:04:00,
2013-12-31 15:09:00,24.0,11.0,30.02,WNW,292,5.4,14.0,56,0.00,,,0.00,Rainwise IP-100,2013-12-31 20:09:00,
2013-12-31 15:14:00,23.8,11.0,30.03,West,270,4.4,15.0,56,0.00,,,0.00,Rainwise IP-100,2013-12-31 20:14:00,
2013-12-31 15:19:00,23.8,11.0,30.03,WSW,247,4.0,11.0,56,0.00,,,0.00,Rainwise IP-100,2013-12-31 20:19:00,
2013-12-31 15:24:00,23.9,11.0,30.03,West,270,6.5,13.0,57,0.00,,,0.00,Rainwise IP-100,2013-12-31 20:24:00,
2013-12-31 15:29:00,24.1,11.0,30.03,WSW,247,5.4,13.0,56,0.00,,,0.00,Rainwise IP-100,2013-12-31 20:29:00,
2013-12-31 15:34:00,23.9,11.0,30.03,SW,225,2.1,11.0,56,0.00,,,0.00,Rainwise IP-100,2013-12-31 20:34:00,
2013-12-31 15:39:00,23.5,11.0,30.04,WSW,247,4.2,11.0,56,0.00,,,0.00,Rainwise IP-100,2013-12-31 20:39:00,
2013-12-31 15:44:00,23.1,11.0,30.04,WSW,247,3.5,11.0,57,0.00,,,0.00,Rainwise IP-100,2013-12-31 20:44:00,
2013-12-31 15:49:00,22.9,11.0,30.04,West,270,5.4,11.0,58,0.00,,,0.00,Rainwise IP-100,2013-12-31 20:49:00,
2013-12-31 15:54:00,22.8,11.0,30.04,SW,225,3.7,7.0,59,0.00,,,0.00,Rainwise IP-100,2013-12-31 20:54:00,
2013-12-31 15:59:00,22.7,11.0,30.04,West,270,4.2,11.0,59,0.00,,,0.00,Rainwise IP-100,2013-12-31 20:59:00,
2013-12-31 16:04:00,22.7,11.0,30.04,WSW,247,2.3,10.0,59,0.00,,,0.00,Rainwise IP-100,2013-12-31 21:04:00,
2013-12-31 16:09:00,22.7,11.0,30.04,WNW,292,5.8,10.0,59,0.00,,,0.00,Rainwise IP-100,2013-12-31 21:09:00,
2013-12-31 16:14:00,22.6,11.0,30.05,WSW,247,4.0,9.0,59,0.00,,,0.00,Rainwise IP-100,2013-12-31 21:14:00,
2013-12-31 16:19:00,22.6,11.0,30.04,NW,315,4.9,9.0,60,0.00,,,0.00,Rainwise IP-100,2013-12-31 21:19:00,
2013-12-31 16:24:00,22.8,11.0,30.05,WSW,247,6.8,13.0,60,0.00,,,0.00,Rainwise IP-100,2013-12-31 21:24:00,
2013-12-31 16:29:00,22.9,11.0,30.05,WNW,292,2.8,10.0,61,0.00,,,0.00,Rainwise IP-100,2013-12-31 21:29:00,
2013-12-31 16:34:00,22.9,11.0,30.05,West,270,3.0,14.0,61,0.00,,,0.00,Rainwise IP-100,2013-12-31 21:34:00,
2013-12-31 16:39:00,23.0,11.0,30.05,WSW,247,4.2,14.0,61,0.00,,,0.00,Rainwise IP-100,2013-12-31 21:39:00,
2013-12-31 16:44:00,23.0,11.0,30.06,SW,225,6.1,13.0,60,0.00,,,0.00,Rainwise IP-100,2013-12-31 21:44:00,
2013-12-31 16:49:00,23.0,11.0,30.06,WNW,292,5.1,15.0,60,0.00,,,0.00,Rainwise IP-100,2013-12-31 21:49:00,
2013-12-31 16:54:00,23.0,11.0,30.07,SW,225,8.2,13.0,60,0.00,,,0.00,Rainwise IP-100,2013-12-31 21:54:00,
2013-12-31 16:59:00,22.9,11.0,30.07,SW,225,5.6,12.0,60,0.00,,,0.00,Rainwise IP-100,2013-12-31 21:59:00,
2013-12-31 17:04:00,22.9,11.0,30.07,West,270,6.5,15.0,60,0.00,,,0.00,Rainwise IP-100,2013-12-31 22:04:00,
2013-12-31 17:09:00,23.0,11.0,30.07,West,270,9.6,18.0,61,0.00,,,0.00,Rainwise IP-100,2013-12-31 22:09:00,
2013-12-31 17:14:00,23.0,11.0,30.07,WSW,247,6.5,14.0,62,0.00,,,0.00,Rainwise IP-100,2013-12-31 22:14:00,
2013-12-31 17:19:00,23.0,11.0,30.08,NW,315,7.5,13.0,62,0.00,,,0.00,Rainwise IP-100,2013-12-31 22:19:00,
2013-12-31 17:24:00,23.1,11.0,30.08,West,270,9.8,14.0,62,0.00,,,0.00,Rainwise IP-100,2013-12-31 22:24:00,
2013-12-31 17:29:00,23.1,11.0,30.08,West,270,3.3,16.0,62,0.00,,,0.00,Rainwise IP-100,2013-12-31 22:29:00,
2013-12-31 17:34:00,23.0,11.0,30.08,West,270,4.2,13.0,62,0.00,,,0.00,Rainwise IP-100,2013-12-31 22:34:00,
2013-12-31 17:39:00,23.0,11.0,30.08,West,270,3.0,13.0,62,0.00,,,0.00,Rainwise IP-100,2013-12-31 22:39:00,
2013-12-31 17:44:00,22.9,11.0,30.07,West,270,4.7,13.0,61,0.00,,,0.00,Rainwise IP-100,2013-12-31 22:44:00,
2013-12-31 17:49:00,22.9,11.0,30.07,West,270,10.5,14.0,61,0.00,,,0.00,Rainwise IP-100,2013-12-31 22:49:00,
2013-12-31 17:54:00,22.9,11.0,30.08,WNW,292,5.8,14.0,61,0.00,,,0.00,Rainwise IP-100,2013-12-31 22:54:00,
2013-12-31 17:59:00,23.0,11.0,30.07,WNW,292,5.1,14.0,61,0.00,,,0.00,Rainwise IP-100,2013-12-31 22:59:00,
2013-12-31 18:04:00,22.9,11.0,30.08,West,270,7.7,14.0,61,0.00,,,0.00,Rainwise IP-100,2013-12-31 23:04:00,
2013-12-31 18:09:00,22.9,11.0,30.08,WSW,247,4.4,14.0,61,0.00,,,0.00,Rainwise IP-100,2013-12-31 23:09:00,
2013-12-31 18:14:00,23.0,11.0,30.08,WNW,292,12.1,14.0,61,0.00,,,0.00,Rainwise IP-100,2013-12-31 23:14:00,
2013-12-31 18:19:00,23.0,11.0,30.08,WNW,292,6.3,16.0,61,0.00,,,0.00,Rainwise IP-100,2013-12-31 23:19:00,
2013-12-31 18:24:00,23.0,11.0,30.08,SSW,202,3.0,15.0,61,0.00,,,0.00,Rainwise IP-100,2013-12-31 23:24:00,
2013-12-31 18:29:00,23.0,11.0,30.08,West,270,5.8,13.0,62,0.00,,,0.00,Rainwise IP-100,2013-12-31 23:29:00,
2013-12-31 18:34:00,22.9,11.0,30.08,West,270,7.0,13.0,62,0.00,,,0.00,Rainwise IP-100,2013-12-31 23:34:00,
2013-12-31 18:39:00,22.9,11.0,30.08,West,270,9.3,12.0,62,0.00,,,0.00,Rainwise IP-100,2013-12-31 23:39:00,
2013-12-31 18:44:00,22.9,11.0,30.08,WNW,292,11.0,15.0,61,0.00,,,0.00,Rainwise IP-100,2013-12-31 23:44:00,
2013-12-31 18:49:00,23.0,11.0,30.08,West,270,7.9,16.0,61,0.00,,,0.00,Rainwise IP-100,2013-12-31 23:49:00,
2013-12-31 18:54:00,23.2,11.0,30.08,West,270,7.7,13.0,62,0.00,,,0.00,Rainwise IP-100,2013-12-31 23:54:00,
2013-12-31 18:59:00,23.2,14.0,30.08,West,270,3.3,11.0,63,0.00,,,0.00,Rainwise IP-100,2013-12-31 23:59:00,
2013-12-31 19:04:00,23.2,14.0,30.08,WNW,292,5.6,11.0,64,0.00,,,0.00,Rainwise IP-100,2014-01-01 00:04:00,
2013-12-31 19:09:00,23.2,14.0,30.09,WNW,292,5.8,10.0,65,0.00,,,0.00,Rainwise IP-100,2014-01-01 00:09:00,
2013-12-31 19:14:00,23.2,14.0,30.09,West,270,6.5,11.0,66,0.00,,,0.00,Rainwise IP-100,2014-01-01 00:14:00,
2013-12-31 19:19:00,23.3,14.0,30.09,WNW,292,2.3,14.0,66,0.00,,,0.00,Rainwise IP-100,2014-01-01 00:19:00,
2013-12-31 19:24:00,23.4,14.0,30.09,SW,225,3.5,14.0,65,0.00,,,0.00,Rainwise IP-100,2014-01-01 00:24:00,
2013-12-31 19:29:00,23.5,16.0,30.09,WSW,247,2.8,10.0,66,0.00,,,0.00,Rainwise IP-100,2014-01-01 00:29:00,
2013-12-31 19:34:00,23.5,16.0,30.09,West,270,7.0,13.0,66,0.00,,,0.00,Rainwise IP-100,2014-01-01 00:34:00,
2013-12-31 19:39:00,23.4,14.0,30.10,West,270,10.0,11.0,66,0.00,,,0.00,Rainwise IP-100,2014-01-01 00:39:00,
2013-12-31 19:44:00,23.3,14.0,30.10,West,270,4.0,11.0,66,0.00,,,0.00,Rainwise IP-100,2014-01-01 00:44:00,
2013-12-31 19:49:00,23.3,14.0,30.10,WSW,247,4.9,9.0,67,0.00,,,0.00,Rainwise IP-100,2014-01-01 00:49:00,
2013-12-31 19:54:00,23.3,14.0,30.10,West,270,2.6,12.0,67,0.00,,,0.00,Rainwise IP-100,2014-01-01 00:54:00,
2013-12-31 19:59:00,23.3,14.0,30.11,WSW,247,7.9,10.0,68,0.00,,,0.00,Rainwise IP-100,2014-01-01 00:59:00,
2013-12-31 20:04:00,23.3,14.0,30.11,West,270,6.8,13.0,68,0.00,,,0.00,Rainwise IP-100,2014-01-01 01:04:00,
2013-12-31 20:09:00,23.3,14.0,30.11,WSW,247,9.8,17.0,69,0.00,,,0.00,Rainwise IP-100,2014-01-01 01:09:00,
2013-12-31 20:14:00,23.4,14.0,30.11,WSW,247,4.0,12.0,69,0.00,,,0.00,Rainwise IP-100,2014-01-01 01:14:00,
2013-12-31 20:19:00,23.6,16.0,30.11,West,270,7.2,16.0,70,0.00,,,0.00,Rainwise IP-100,2014-01-01 01:19:00,
2013-12-31 20:24:00,23.8,16.0,30.11,WNW,292,3.5,17.0,70,0.00,,,0.00,Rainwise IP-100,2014-01-01 01:24:00,
2013-12-31 20:29:00,23.9,16.0,30.11,West,270,3.3,13.0,71,0.00,,,0.00,Rainwise IP-100,2014-01-01 01:29:00,
2013-12-31 20:34:00,24.0,16.0,30.11,WSW,247,4.2,17.0,71,0.00,,,0.00,Rainwise IP-100,2014-01-01 01:34:00,
2013-12-31 20:39:00,24.1,16.0,30.11,West,270,2.6,12.0,72,0.00,,,0.00,Rainwise IP-100,2014-01-01 01:39:00,
2013-12-31 20:44:00,24.2,16.0,30.11,WNW,292,2.6,14.0,72,0.00,,,0.00,Rainwise IP-100,2014-01-01 01:44:00,
2013-12-31 20:49:00,24.4,16.0,30.11,SW,225,3.5,15.0,73,0.00,,,0.00,Rainwise IP-100,2014-01-01 01:49:00,
2013-12-31 20:54:00,24.5,18.0,30.11,WNW,292,13.8,16.0,73,0.00,,,0.00,Rainwise IP-100,2014-01-01 01:54:00,
2013-12-31 20:59:00,24.7,18.0,30.11,West,270,6.5,17.0,73,0.00,,,0.00,Rainwise IP-100,2014-01-01 01:59:00,
2013-12-31 21:04:00,24.9,18.0,30.12,WNW,292,8.9,18.0,72,0.00,,,0.00,Rainwise IP-100,2014-01-01 02:04:00,
2013-12-31 21:09:00,25.0,18.0,30.12,West,270,13.1,19.0,72,0.00,,,0.00,Rainwise IP-100,2014-01-01 02:09:00,
2013-12-31 21:14:00,25.0,18.0,30.12,WNW,292,11.9,16.0,72,0.00,,,0.00,Rainwise IP-100,2014-01-01 02:14:00,
2013-12-31 21:19:00,25.0,18.0,30.12,West,270,7.9,19.0,72,0.00,,,0.00,Rainwise IP-100,2014-01-01 02:19:00,
2013-12-31 21:24:00,25.0,18.0,30.13,West,270,7.7,17.0,72,0.00,,,0.00,Rainwise IP-100,2014-01-01 02:24:00,
2013-12-31 21:29:00,24.9,18.0,30.13,West,270,16.3,22.0,73,0.00,,,0.00,Rainwise IP-100,2014-01-01 02:29:00,
2013-12-31 21:34:00,24.8,18.0,30.13,WNW,292,4.9,24.0,74,0.00,,,0.00,Rainwise IP-100,2014-01-01 02:34:00,
2013-12-31 21:39:00,24.7,18.0,30.13,WNW,292,4.0,18.0,74,0.00,,,0.00,Rainwise IP-100,2014-01-01 02:39:00,
2013-12-31 21:44:00,24.7,18.0,30.12,WSW,247,8.9,20.0,74,0.00,,,0.00,Rainwise IP-100,2014-01-01 02:44:00,
2013-12-31 21:49:00,24.7,18.0,30.13,ESE,112,5.6,23.0,74,0.00,,,0.00,Rainwise IP-100,2014-01-01 02:49:00,
2013-12-31 21:54:00,24.6,18.0,30.13,WNW,292,11.4,21.0,74,0.00,,,0.00,Rainwise IP-100,2014-01-01 02:54:00,
2013-12-31 21:59:00,24.6,21.0,30.11,West,270,12.1,21.0,75,0.00,,,0.00,Rainwise IP-100,2014-01-01 02:59:00,
2013-12-31 22:04:00,24.5,18.0,30.13,WNW,292,2.6,21.0,74,0.00,,,0.00,Rainwise IP-100,2014-01-01 03:04:00,
2013-12-31 22:09:00,24.4,18.0,30.13,West,270,7.2,18.0,74,0.00,,,0.00,Rainwise IP-100,2014-01-01 03:09:00,
2013-12-31 22:14:00,24.4,16.0,30.14,WNW,292,9.8,21.0,73,0.00,,,0.00,Rainwise IP-100,2014-01-01 03:14:00,
2013-12-31 22:19:00,24.2,16.0,30.13,WNW,292,14.0,25.0,71,0.06,,,0.01,Rainwise IP-100,2014-01-01 03:19:00,
2013-12-31 22:24:00,24.1,16.0,30.13,WNW,292,6.8,25.0,69,0.06,,,0.01,Rainwise IP-100,2014-01-01 03:24:00,
2013-12-31 22:29:00,24.0,16.0,30.14,West,270,11.7,22.0,68,0.00,,,0.01,Rainwise IP-100,2014-01-01 03:29:00,
2013-12-31 22:34:00,23.8,16.0,30.13,West,270,15.2,23.0,67,0.00,,,0.01,Rainwise IP-100,2014-01-01 03:34:00,
2013-12-31 22:39:00,23.6,16.0,30.15,NNW,337,8.2,21.0,66,0.00,,,0.01,Rainwise IP-100,2014-01-01 03:39:00,
2013-12-31 22:44:00,23.4,14.0,30.15,West,270,8.4,17.0,66,0.00,,,0.01,Rainwise IP-100,2014-01-01 03:44:00,
2013-12-31 22:49:00,23.3,14.0,30.14,WNW,292,8.2,19.0,67,0.00,,,0.01,Rainwise IP-100,2014-01-01 03:49:00,
2013-12-31 22:54:00,23.2,14.0,30.14,WNW,292,5.4,17.0,67,0.00,,,0.01,Rainwise IP-100,2014-01-01 03:54:00,
2013-12-31 22:59:00,23.2,14.0,30.15,WNW,292,15.9,20.0,68,0.00,,,0.01,Rainwise IP-100,2014-01-01 03:59:00,
2013-12-31 23:04:00,23.2,14.0,30.15,WNW,292,9.8,15.0,68,0.00,,,0.01,Rainwise IP-100,2014-01-01 04:04:00,
2013-12-31 23:09:00,23.2,14.0,30.15,NW,315,7.7,17.0,68,0.00,,,0.01,Rainwise IP-100,2014-01-01 04:09:00,
2013-12-31 23:14:00,23.3,14.0,30.15,West,270,14.2,14.2,68,0.00,,,0.01,Rainwise IP-100,2014-01-01 04:14:00,
2013-12-31 23:19:00,23.3,14.0,30.15,West,270,18.7,19.0,68,0.00,,,0.01,Rainwise IP-100,2014-01-01 04:19:00,
2013-12-31 23:24:00,23.3,14.0,30.15,NW,315,7.5,18.0,68,0.00,,,0.01,Rainwise IP-100,2014-01-01 04:24:00,
2013-12-31 23:29:00,23.4,14.0,30.15,West,270,7.2,17.0,67,0.00,,,0.01,Rainwise IP-100,2014-01-01 04:29:00,
2013-12-31 23:34:00,23.3,14.0,30.15,West,270,7.2,17.0,68,0.00,,,0.01,Rainwise IP-100,2014-01-01 04:34:00,
2013-12-31 23:39:00,23.2,14.0,30.15,WNW,292,9.3,26.0,68,0.00,,,0.01,Rainwise IP-100,2014-01-01 04:39:00,
2013-12-31 23:44:00,23.2,14.0,30.15,NW,315,5.1,15.0,68,0.00,,,0.01,Rainwise IP-100,2014-01-01 04:44:00,
2013-12-31 23:49:00,23.1,14.0,30.15,WSW,247,12.1,19.0,68,0.00,,,0.01,Rainwise IP-100,2014-01-01 04:49:00,
2013-12-31 23:54:00,23.1,14.0,30.15,WNW,292,7.9,23.0,68,0.00,,,0.01,Rainwise IP-100,2014-01-01 04:54:00,
2013-12-31 23:59:00,23.1,14.0,30.15,WNW,292,11.7,25.0,67,0.00,,,0.01,Rainwise IP-100,2014-01-01 04:59:00,